Time+03,TemperatureF,Dew PointF,Humidity,Sea Level PressureIn,VisibilityMPH,Wind Direction,Wind SpeedMPH,Gust SpeedMPH,PrecipitationIn,Events,Conditions,WindDirDegrees,DateUTC
12:00 AM,70,65,79,29.99,6,SSE,3.5,,,,Haze,150,2013-12-05 21:00:00
12:00 AM,69.8,64.4,83,29.98,5.6,SSE,3.5,-,N/A,,Unknown,150,2013-12-05 21:00:00
12:30 AM,71.6,64.4,78,29.98,5.6,SE,5.8,-,N/A,,Unknown,140,2013-12-05 21:30:00
1:00 AM,69.8,64.4,83,29.98,5.6,SE,3.5,-,N/A,,Unknown,140,2013-12-05 22:00:00
1:30 AM,69.8,64.4,83,29.95,4.3,Variable,1.2,-,N/A,,Unknown,0,2013-12-05 22:30:00
2:00 AM,69.8,64.4,83,29.95,3.7,South,3.5,-,N/A,,Unknown,170,2013-12-05 23:00:00
2:30 AM,69.8,66.2,88,29.95,3.7,Variable,2.3,-,N/A,,Unknown,0,2013-12-05 23:30:00
3:00 AM,70,65,81,29.97,4,SE,3.5,,,,Haze,140,2013-12-06 00:00:00
3:00 AM,69.8,66.2,88,29.95,3.7,SE,3.5,-,N/A,,Unknown,140,2013-12-06 00:00:00
3:30 AM,69.8,66.2,88,29.95,3.7,South,3.5,-,N/A,,Unknown,180,2013-12-06 00:30:00
4:00 AM,69.8,66.2,88,29.95,3.7,South,3.5,-,N/A,,Unknown,170,2013-12-06 01:00:00
4:30 AM,69.8,66.2,88,29.95,3.7,South,3.5,-,N/A,,Partly Cloudy,190,2013-12-06 01:30:00
5:00 AM,69.8,66.2,88,29.98,3.7,South,3.5,-,N/A,,Partly Cloudy,190,2013-12-06 02:00:00
6:00 AM,70,66,82,29.99,3,South,4.6,,,,Haze,190,2013-12-06 03:00:00
6:00 AM,69.8,66.2,88,29.98,3.1,South,4.6,-,N/A,,Haze,190,2013-12-06 03:00:00
6:30 AM,69.8,66.2,88,30.01,3.7,SSW,3.5,-,N/A,,Scattered Clouds,200,2013-12-06 03:30:00
7:00 AM,69.8,66.2,88,30.01,3.7,Variable,2.3,-,N/A,,Scattered Clouds,0,2013-12-06 04:00:00
7:30 AM,71.6,66.2,83,30.01,4.3,South,3.5,-,N/A,,Scattered Clouds,170,2013-12-06 04:30:00
8:00 AM,73.4,66.2,78,30.01,4.3,SSW,3.5,-,N/A,,Scattered Clouds,200,2013-12-06 05:00:00
8:30 AM,75.2,66.2,73,30.04,5.0,South,3.5,-,N/A,,Scattered Clouds,180,2013-12-06 05:30:00
9:00 AM,76,67,66,30.04,5,South,5.8,,,,Haze,170,2013-12-06 06:00:00
9:00 AM,75.2,66.2,73,30.04,5.0,South,5.8,-,N/A,,Scattered Clouds,170,2013-12-06 06:00:00
9:30 AM,77.0,62.6,61,30.01,5.6,SSE,5.8,-,N/A,,Scattered Clouds,160,2013-12-06 06:30:00
10:00 AM,78.8,62.6,57,30.01,-9999.0,South,6.9,-,N/A,,Clear,180,2013-12-06 07:00:00
10:30 AM,80.6,62.6,54,30.01,-9999.0,South,5.8,-,N/A,,Clear,190,2013-12-06 07:30:00
11:00 AM,80.6,55.4,42,30.01,-9999.0,South,5.8,-,N/A,,Clear,190,2013-12-06 08:00:00
11:30 AM,84.2,50.0,30,29.98,-9999.0,SSW,8.1,-,N/A,,Clear,210,2013-12-06 08:30:00
12:00 PM,84,52,22,29.99,6,SW,6.9,,,,Clear,220,2013-12-06 09:00:00
12:00 PM,84.2,51.8,33,29.98,-9999.0,SW,6.9,-,N/A,,Clear,220,2013-12-06 09:00:00
12:30 PM,84.2,48.2,29,29.95,-9999.0,SW,9.2,-,N/A,,Clear,220,2013-12-06 09:30:00
1:00 PM,84.2,48.2,29,29.95,-9999.0,SW,8.1,-,N/A,,Clear,220,2013-12-06 10:00:00
1:30 PM,86.0,44.6,23,29.95,-9999.0,SW,8.1,-,N/A,,Clear,220,2013-12-06 10:30:00
2:00 PM,86.0,42.8,22,29.95,-9999.0,SSW,8.1,-,N/A,,Clear,210,2013-12-06 11:00:00
3:00 PM,87,42,12,29.96,10,SSW,6.9,,,,Clear,210,2013-12-06 12:00:00
3:00 PM,86.0,41.0,20,29.95,-9999.0,SSW,6.9,-,N/A,,Clear,210,2013-12-06 12:00:00
4:00 PM,84.2,42.8,23,29.95,-9999.0,SW,6.9,-,N/A,,Clear,220,2013-12-06 13:00:00
4:30 PM,82.4,44.6,26,29.95,-9999.0,SW,5.8,-,N/A,,Clear,220,2013-12-06 13:30:00
5:00 PM,82.4,48.2,30,29.95,-9999.0,Variable,2.3,-,N/A,,Clear,0,2013-12-06 14:00:00
5:30 PM,77.0,60.8,57,29.95,-9999.0,SSE,4.6,-,N/A,,Clear,160,2013-12-06 14:30:00
6:00 PM,77,60,46,29.97,7,South,3.5,,,,Clear,170,2013-12-06 15:00:00
6:00 PM,77.0,60.8,57,29.95,-9999.0,South,3.5,-,N/A,,Clear,170,2013-12-06 15:00:00
7:00 PM,75.2,60.8,61,29.98,-9999.0,South,3.5,-,N/A,,Clear,190,2013-12-06 16:00:00
8:00 PM,73.4,62.6,69,29.98,-9999.0,SSW,3.5,-,N/A,,Clear,200,2013-12-06 17:00:00
9:00 PM,73,63,63,30.00,9,,2.3,,,,,,2013-12-06 18:00:00
9:00 PM,73.4,62.6,69,29.98,-9999.0,Variable,2.3,-,N/A,,Clear,0,2013-12-06 18:00:00
9:30 PM,73.4,64.4,73,30.01,-9999.0,West,4.6,-,N/A,,Clear,260,2013-12-06 18:30:00
10:00 PM,71.6,60.8,69,30.01,-9999.0,WSW,4.6,-,N/A,,Clear,250,2013-12-06 19:00:00
10:30 PM,71.6,57.2,60,30.01,-9999.0,WSW,3.5,-,N/A,,Clear,240,2013-12-06 19:30:00
11:00 PM,73.4,53.6,50,30.01,-9999.0,WNW,3.5,-,N/A,,Clear,290,2013-12-06 20:00:00
11:30 PM,71.6,53.6,53,30.01,-9999.0,WNW,5.8,-,N/A,,Clear,300,2013-12-06 20:30:00